Weather History for Victoria, BC

Change the Weather History Date:

Thursday, February 14, 2013

  Actual Average Record
Temperature  
Mean Temperature 42 °F -  
Max Temperature 45 °F 48 °F 53 °F (2014)
Min Temperature 39 °F 34 °F 28 °F (2005)
Degree Days  
Heating Degree Days 23    
Moisture  
Dew Point 41 °F    
Average Humidity 91    
Maximum Humidity 93    
Minimum Humidity 81    
Precipitation  
Precipitation 0.12 in 0.11 in - ()
Sea Level Pressure  
Sea Level Pressure 30.54 in    
Wind  
Wind Speed 3 mph ()    
Max Wind Speed 8 mph    
Max Gust Speed -    
Visibility 7.8 miles    
Events Rain    
Averages and records for this station are not official NWS values.
T = Trace of Precipitation, MM = Missing Value Source: Averaged Metar Reports

Daily Weather History Graph

Daily Weather History Graph

Search for Another Location

Airport:

Trip Planner

Search our weather history database for the weather conditions in past years. The results will help you decide how hot, cold, wet, or windy it might be!

Date:

Astronomy

Feb. 14, 2013 Rise Set
Actual Time 7:22 AM PST 5:33 PM PST
Civil Twilight 6:49 AM PST 6:06 PM PST
Nautical Twilight 6:13 AM PST 6:43 PM PST
Astronomical Twilight 5:36 AM PST 7:19 PM PST
Moon 8:59 AM PST (2/14) 11:13 PM PST (2/14)
Length of Visible Light 11h 16m
Length of Day
10h 11m
Waxing Crescent, 22% of the Moon is Illuminated
Feb 14
Waxing Crescent
Feb 17
First Quarter
Feb 25
Full
Mar 4
Last Quarter
Mar 11
New

Hourly Weather History & Observations

Time (PST) Temp. Windchill Dew Point Humidity Pressure Visibility Wind Dir Wind Speed Gust Speed Precip Events Conditions
12:00 AM 41.0 °F 39.0 °F 35.6 °F 81% 30.48 in 20.0 mi SW 3.5 mph - N/A   Mostly Cloudy
1:00 AM 41.0 °F - 37.4 °F 87% 30.48 in 20.0 mi SW 2.3 mph - N/A   Overcast
1:46 AM 41.0 °F - - N/A% - 20.0 mi West 2.3 mph - N/A Rain Light Rain
2:00 AM 41.0 °F - 37.4 °F 87% 30.48 in 20.0 mi West 2.3 mph - N/A Rain Light Rain
3:00 AM 42.8 °F - 39.2 °F 87% 30.48 in 10.0 mi Calm Calm - N/A Rain Light Rain
4:00 AM 42 °F - 39 °F 83% 30.51 in 7 mi West 5.8 mph - - Rain Light Rain
4:00 AM 41.0 °F 37.1 °F 39.2 °F 93% 30.51 in 8.0 mi WNW 5.8 mph - N/A Rain Light Rain
5:00 AM 41.0 °F - 39.2 °F 93% 30.52 in 7.0 mi Calm Calm - N/A Rain Light Rain
6:00 AM 41.0 °F - 39.2 °F 93% 30.50 in 12.0 mi Calm Calm - N/A Rain Light Rain
6:44 AM 41.0 °F - - N/A% - 12.0 mi NNE 2.3 mph - N/A   Overcast
7:00 AM 41.0 °F - 39.2 °F 93% 30.52 in 12.0 mi NE 2.3 mph - N/A Rain Light Rain
7:35 AM 41.0 °F - - N/A% - 10.0 mi Calm Calm - N/A Rain Light Rain
7:50 AM 41.0 °F - - N/A% - 4.0 mi Calm Calm - N/A Rain Light Rain
8:00 AM 41.0 °F - 39.2 °F 93% 30.54 in 4.0 mi Calm Calm - N/A   Light Drizzle
8:23 AM 41.0 °F - - N/A% - 4.0 mi Calm Calm - N/A   Light Drizzle
9:00 AM 42.8 °F - 41.0 °F 93% 30.53 in 4.0 mi Calm Calm - N/A   Overcast
9:24 AM 42.8 °F 40.1 °F - N/A% - 1.0 mi East 4.6 mph - N/A   Overcast
10:00 AM 43 °F - 42 °F 92% 30.53 in 1 mi SE 2.3 mph - - Rain Light Drizzle
10:00 AM 42.8 °F - 41.0 °F 93% 30.53 in 1.0 mi SE 2.3 mph - N/A   Light Drizzle
10:44 AM 44.6 °F - - N/A% - 1.0 mi East 2.3 mph - N/A   Light Drizzle
11:00 AM 44.6 °F 43.1 °F 42.8 °F 93% 30.55 in 3.0 mi East 3.5 mph - N/A   Light Drizzle
11:16 AM 44.6 °F 41.4 °F - N/A% - 15.0 mi SE 5.8 mph - N/A   Overcast
12:00 PM 44.6 °F 40.7 °F 42.8 °F 93% 30.55 in 15.0 mi ESE 6.9 mph - N/A   Overcast
12:29 PM 44.6 °F 40.7 °F - N/A% - 3.0 mi SE 6.9 mph - N/A Rain Light Rain
12:48 PM 44.6 °F 42.2 °F - N/A% - 6.0 mi SE 4.6 mph - N/A Rain Light Rain
1:00 PM 44.6 °F 40.2 °F 42.8 °F 93% 30.56 in 10.0 mi SE 8.1 mph - N/A Rain Light Rain
2:00 PM 44.6 °F 41.4 °F 42.8 °F 93% 30.56 in 5.0 mi SSE 5.8 mph - N/A Rain Light Rain
2:41 PM 44.6 °F 40.2 °F - N/A% - 3.0 mi SE 8.1 mph - N/A Rain Light Rain
3:00 PM 44.6 °F 40.7 °F 42.8 °F 93% 30.56 in 5.0 mi SE 6.9 mph - N/A Rain Light Rain
3:42 PM 44.6 °F 41.4 °F - N/A% - 12.0 mi SE 5.8 mph - N/A   Overcast
4:00 PM 45 °F - 42 °F 86% 30.56 in 12 mi SE 5.8 mph - - Rain Light Rain
4:00 PM 44.6 °F 41.4 °F 42.8 °F 93% 30.56 in 12.0 mi SE 5.8 mph - N/A   Overcast
5:00 PM 44.6 °F 41.4 °F 42.8 °F 93% 30.56 in 10.0 mi SSE 5.8 mph - N/A   Overcast
5:38 PM 44.6 °F 42.2 °F - N/A% - 8.0 mi SSE 4.6 mph - N/A Rain Light Rain
6:00 PM 44.6 °F - 42.8 °F 93% 30.57 in 7.0 mi South 2.3 mph - N/A   Overcast
7:00 PM 44.6 °F - 42.8 °F 93% 30.57 in 10.0 mi Calm Calm - N/A   Overcast
8:00 PM 44.6 °F - 42.8 °F 93% 30.57 in 6.0 mi Calm Calm - N/A   Overcast
8:30 PM 44.6 °F - - N/A% - 6.0 mi Calm Calm - N/A   Light Drizzle
8:37 PM 44.6 °F - - N/A% - 6.0 mi Calm Calm - N/A   Light Drizzle
9:00 PM 44.6 °F - 42.8 °F 93% 30.57 in 4.0 mi Calm Calm - N/A   Light Drizzle
9:50 PM 44.6 °F - - N/A% - 2.5 mi Calm Calm - N/A   Light Drizzle
10:00 PM 44 °F - 43 °F 93% 30.58 in 2 mi Calm Calm - - Rain Light Drizzle
10:00 PM 44.6 °F - 42.8 °F 93% 30.58 in 2.5 mi Calm Calm - N/A   Light Drizzle
10:25 PM 44.6 °F - - N/A% - 3.0 mi Calm Calm - N/A   Light Drizzle
11:00 PM 44.6 °F - 42.8 °F 93% 30.59 in 4.0 mi Calm Calm - N/A   Overcast